| time (UTC) | temp C | wind direction | speed KPH | gust KPH | rain 1hr cm | rain 24hr cm | rain mn cm | humidity % | barometer mb |
| 20260505200021 | 29 | 83 | 0.0 | 9.7 | 0.00 | 0.00 | 0.00 | 66 | 983.9 |
| 20260505194517 | 28 | 119 | 3.2 | 16.1 | 0.00 | 0.00 | 0.00 | 69 | 983.9 |
| 20260505193024 | 28 | 111 | 0.0 | 20.9 | 0.00 | 0.00 | 0.00 | 69 | 983.9 |
| 20260505191516 | 28 | 75 | 6.4 | 20.9 | 0.00 | 0.00 | 0.00 | 69 | 984.1 |
| 20260505190013 | 28 | 77 | 6.4 | 22.5 | 0.00 | 0.00 | 0.00 | 71 | 984.2 |
| 20260505184510 | 27 | 57 | 0.0 | 17.7 | 0.00 | 0.00 | 0.00 | 71 | 984.4 |
| 20260505183017 | 27 | 74 | 6.4 | 22.5 | 0.00 | 0.00 | 0.00 | 71 | 984.4 |
| 20260505181507 | 27 | 106 | 1.6 | 17.7 | 0.00 | 0.00 | 0.00 | 72 | 984.5 |
| 20260505180013 | 27 | 135 | 0.0 | 16.1 | 0.00 | 0.00 | 0.00 | 73 | 984.5 |
| 20260505174508 | 27 | 87 | 1.6 | 14.5 | 0.00 | 0.00 | 0.00 | 71 | 984.6 |
| 20260505173004 | 27 | 85 | 0.0 | 12.9 | 0.00 | 0.00 | 0.00 | 73 | 984.5 |
| 20260505171506 | 27 | 97 | 6.4 | 22.5 | 0.00 | 0.00 | 0.00 | 73 | 984.6 |
| 20260505170111 | 26 | 117 | 1.6 | 17.7 | 0.00 | 0.00 | 0.00 | 75 | 984.7 |
| 20260505164556 | 25 | 108 | 1.6 | 30.6 | 0.00 | 0.00 | 0.00 | 76 | 984.6 |
| 20260505163056 | 25 | 86 | 1.6 | 22.5 | 0.00 | 0.00 | 0.00 | 76 | 984.5 |
| 20260505161614 | 25 | 101 | 3.2 | 20.9 | 0.00 | 0.00 | 0.00 | 76 | 984.4 |
| 20260505153100 | 24 | 130 | 8.0 | 22.5 | 0.00 | 0.00 | 0.00 | 80 | 984.5 |
| 20260505151558 | 23 | 80 | 4.8 | 24.1 | 0.00 | 0.00 | 0.00 | 81 | 984.6 |
| 20260505124525 | 21 | 119 | 0.0 | 19.3 | 0.00 | 0.00 | 0.00 | 86 | 984.2 |
| 20260505123024 | 21 | 92 | 0.0 | 17.7 | 0.00 | 0.00 | 0.00 | 86 | 983.8 |
| 20260505121526 | 21 | 116 | 1.6 | 16.1 | 0.00 | 0.00 | 0.00 | 86 | 983.6 |
| 20260505120022 | 21 | 110 | 0.0 | 30.6 | 0.00 | 0.00 | 0.00 | 87 | 983.5 |
| 20260505114521 | 21 | 104 | 0.0 | 19.3 | 0.00 | 0.00 | 0.00 | 87 | 983.7 |
| 20260505113022 | 21 | 102 | 0.0 | 14.5 | 0.00 | 0.00 | 0.00 | 86 | 983.5 |
| 20260505111519 | 21 | 119 | 4.8 | 17.7 | 0.00 | 0.00 | 0.00 | 86 | 983.5 |
| 20260505101514 | 21 | 90 | 3.2 | 24.1 | 0.00 | 0.00 | 0.00 | 85 | 983.7 |
| 20260505100010 | 21 | 359 | 0.0 | 17.7 | 0.00 | 0.00 | 0.00 | 85 | 983.6 |
| 20260505094505 | 21 | 93 | 3.2 | 25.7 | 0.00 | 0.00 | 0.00 | 85 | 983.8 |
| 20260505093006 | 21 | 87 | 0.0 | 14.5 | 0.00 | 0.00 | 0.00 | 85 | 983.9 |
| 20260505091501 | 21 | 122 | 0.0 | 24.1 | 0.00 | 0.00 | 0.00 | 85 | 983.8 |
| 20260505090108 | 21 | 134 | 11.3 | 24.1 | 0.00 | 0.00 | 0.00 | 85 | 983.8 |
| 20260505084558 | 21 | 106 | 3.2 | 29.0 | 0.00 | 0.00 | 0.00 | 85 | 983.9 |
| 20260505083102 | 21 | 124 | 0.0 | 22.5 | 0.00 | 0.00 | 0.00 | 85 | 984.0 |
| 20260505081558 | 21 | 128 | 0.0 | 22.5 | 0.00 | 0.00 | 0.00 | 85 | 984.0 |
| 20260505080055 | 21 | 116 | 3.2 | 24.1 | 0.00 | 0.00 | 0.00 | 85 | 984.2 |
| 20260505074550 | 21 | 106 | 1.6 | 20.9 | 0.00 | 0.00 | 0.00 | 85 | 984.3 |
| 20260505073048 | 21 | 113 | 3.2 | 17.7 | 0.00 | 0.00 | 0.00 | 84 | 984.7 |
| 20260505071546 | 21 | 104 | 1.6 | 17.7 | 0.00 | 0.00 | 0.00 | 84 | 984.8 |
| 20260505070045 | 21 | 139 | 1.6 | 22.5 | 0.00 | 0.00 | 0.00 | 83 | 984.9 |
| 20260505064543 | 22 | 127 | 3.2 | 19.3 | 0.00 | 0.00 | 0.00 | 83 | 985.2 |
| 20260505063042 | 22 | 116 | 0.0 | 17.7 | 0.00 | 0.00 | 0.00 | 82 | 985.2 |
| 20260505061546 | 22 | 102 | 0.0 | 16.1 | 0.00 | 0.00 | 0.00 | 82 | 985.4 |
| 20260505060040 | 22 | 117 | 4.8 | 17.7 | 0.00 | 0.00 | 0.00 | 81 | 985.3 |
| 20260505054541 | 22 | 145 | 3.2 | 22.5 | 0.00 | 0.00 | 0.00 | 81 | 985.3 |
| 20260505053043 | 22 | 58 | 0.0 | 12.9 | 0.00 | 0.00 | 0.00 | 80 | 985.4 |
| 20260505051536 | 22 | 62 | 0.0 | 14.5 | 0.00 | 0.00 | 0.00 | 79 | 985.6 |
| 20260505041531 | 22 | 92 | 0.0 | 12.9 | 0.00 | 0.00 | 0.00 | 76 | 985.9 |
| 20260505040031 | 22 | 56 | 0.0 | 11.3 | 0.00 | 0.00 | 0.00 | 75 | 985.9 |
| 20260505034529 | 23 | 91 | 0.0 | 9.7 | 0.00 | 0.00 | 0.00 | 74 | 985.6 |
| 20260505033044 | 23 | 39 | 1.6 | 9.7 | 0.00 | 0.00 | 0.00 | 74 | 985.7 |
| 20260505031530 | 23 | 88 | 0.0 | 11.3 | 0.00 | 0.00 | 0.00 | 73 | 985.9 |
| 20260505030030 | 23 | 72 | 1.6 | 12.9 | 0.00 | 0.00 | 0.00 | 73 | 985.9 |
| 20260505024528 | 23 | 95 | 0.0 | 12.9 | 0.00 | 0.00 | 0.00 | 72 | 985.8 |
| 20260505023028 | 23 | 68 | 0.0 | 9.7 | 0.00 | 0.00 | 0.00 | 72 | 985.4 |
| 20260505021528 | 23 | 57 | 0.0 | 4.8 | 0.00 | 0.00 | 0.00 | 71 | 985.6 |
| 20260505020027 | 23 | 120 | 0.0 | 3.2 | 0.00 | 0.00 | 0.00 | 71 | 985.5 |
| 20260505014528 | 23 | 100 | 0.0 | 4.8 | 0.00 | 0.00 | 0.00 | 70 | 985.6 |
| 20260505013025 | 24 | 118 | 0.0 | 6.4 | 0.00 | 0.00 | 0.00 | 70 | 985.5 |
| 20260505011525 | 24 | 87 | 0.0 | 12.9 | 0.00 | 0.00 | 0.00 | 69 | 985.4 |
| 20260505010024 | 24 | 89 | 0.0 | 14.5 | 0.00 | 0.00 | 0.00 | 69 | 985.5 |
| 20260505004537 | 25 | 359 | 0.0 | 4.8 | 0.00 | 0.00 | 0.00 | 68 | 985.6 |
| 20260505003022 | 25 | 95 | 0.0 | 17.7 | 0.00 | 0.00 | 0.00 | 66 | 985.6 |
| 20260505001524 | 25 | 120 | 0.0 | 4.8 | 0.00 | 0.00 | 0.00 | 65 | 985.8 |
| 20260505000022 | 25 | 134 | 0.0 | 9.7 | 0.00 | 0.00 | 0.00 | 65 | 985.8 |
| 20260504234527 | 25 | 90 | 0.0 | 1.6 | 0.00 | 0.00 | 0.00 | 65 | 986.0 |
| 20260504233018 | 25 | 90 | 0.0 | 22.5 | 0.00 | 0.00 | 0.00 | 64 | 985.9 |
| 20260504231532 | 26 | 120 | 0.0 | 22.5 | 0.00 | 0.00 | 0.00 | 63 | 985.9 |
| 20260504230016 | 26 | 118 | 0.0 | 8.0 | 0.00 | 0.00 | 0.00 | 62 | 986.3 |
| 20260504224516 | 26 | 359 | 1.6 | 22.5 | 0.00 | 0.00 | 0.00 | 62 | 986.4 |
| 20260504223015 | 26 | 98 | 1.6 | 20.9 | 0.00 | 0.00 | 0.00 | 61 | 986.2 |
| 20260504221513 | 26 | 123 | 0.0 | 20.9 | 0.00 | 0.00 | 0.00 | 61 | 986.5 |
| 20260504220012 | 26 | 359 | 0.0 | 20.9 | 0.00 | 0.00 | 0.00 | 61 | 986.7 |
| 20260504214516 | 26 | 182 | 0.0 | 30.6 | 0.00 | 0.00 | 0.00 | 61 | 986.8 |
| 20260504213008 | 26 | 359 | 0.0 | 22.5 | 0.00 | 0.00 | 0.00 | 60 | 987.1 |
| 20260504211506 | 26 | 359 | 0.0 | 16.1 | 0.00 | 0.00 | 0.00 | 59 | 987.3 |
| 20260504210007 | 26 | 87 | 0.0 | 19.3 | 0.00 | 0.00 | 0.00 | 60 | 987.6 |
| 20260504204502 | 26 | 109 | 1.6 | 24.1 | 0.00 | 0.00 | 0.00 | 60 | 987.8 |
| 20260504203100 | 26 | 91 | 0.0 | 19.3 | 0.00 | 0.00 | 0.00 | 59 | 988.0 |
| 20260504201602 | 26 | 88 | 0.0 | 16.1 | 0.00 | 0.00 | 0.00 | 59 | 988.5 |